Weather History for KEKN - December, 2012

Change the Weather History Date:

Sunday, December 9, 2012

  Actual Average Record
Temperature  
Mean Temperature 54 °F 34 °F  
Max Temperature 59 °F 44 °F 73 °F (1966)
Min Temperature 48 °F 24 °F -1 °F (1917)
Degree Days  
Heating Degree Days 11 31  
Month to date heating degree days 163 267  
Since 1 July heating degree days 1578 1551  
Cooling Degree Days 0 0  
Month to date cooling degree days 0 0  
Year to date cooling degree days 675 475  
Growing Degree Days 4 (Base 50)    
Moisture  
Dew Point 50 °F    
Average Humidity 84    
Maximum Humidity 100    
Minimum Humidity 67    
Precipitation  
Precipitation 0.88 in 0.11 in 1.19 in (1973)
Month to date precipitation 1.83 1.01  
Year to date precipitation 43.94 43.68  
Snow  
Snow 0.00 in - - ()
Month to date snowfall 0.0  
Since 1 September snowfall 18.4  
Snow Depth 0.00 in    
Sea Level Pressure  
Sea Level Pressure 30.03 in    
Wind  
Wind Speed 2 mph (SSE)    
Max Wind Speed 10 mph    
Max Gust Speed 13 mph    
Visibility 5 miles    
Events Rain    
T = Trace of Precipitation, MM = Missing Value Source: NWS Daily Summary

Daily Weather History Graph

Daily Weather History Graph

Search for Another Location

Airport or City:

Trip Planner

Search our weather history database for the weather conditions in past years. The results will help you decide how hot, cold, wet, or windy it might be!

Date:

Astronomy

Dec. 09, 2012 Rise Set
Actual Time 7:26 AM EST 4:57 PM EST
Civil Twilight 6:56 AM EST 5:27 PM EST
Nautical Twilight 6:23 AM EST 6:00 PM EST
Astronomical Twilight 5:51 AM EST 6:32 PM EST
Moon 2:59 AM EST (12/9) 2:01 PM EST (12/9)
Length of Visible Light 10h 30m
Length of Day
9h 30m
Waning Crescent, 19% of the Moon is Illuminated
Dec 9
Waning Crescent
Dec 13
New
Dec 20
First Quarter
Dec 28
Full
Jan 4
Last Quarter

Hourly Weather History & Observations

Time (EST) Temp. Dew Point Humidity Pressure Visibility Wind Dir Wind Speed Gust Speed Precip Events Conditions
12:41 AM 50.0 °F 48.2 °F 94% 30.04 in 2.5 mi Calm Calm - N/A   Overcast
12:51 AM 50.0 °F 48.0 °F 93% 30.05 in 2.5 mi Calm Calm - N/A   Overcast
12:59 AM 50.0 °F 48.2 °F 94% 30.04 in 3.0 mi West 3.5 mph - N/A   Overcast
1:08 AM 50.0 °F 48.2 °F 94% 30.03 in 2.5 mi Calm Calm - N/A   Overcast
1:32 AM 50.0 °F 48.2 °F 94% 30.04 in 1.2 mi Calm Calm - N/A   Overcast
1:51 AM 50.0 °F 48.0 °F 93% 30.06 in 1.8 mi Calm Calm - N/A   Overcast
2:07 AM 50.0 °F 48.2 °F 94% 30.04 in 2.5 mi Calm Calm - 0.00 in Rain Light Rain
2:20 AM 50.0 °F 48.2 °F 94% 30.04 in 1.5 mi Calm Calm - 0.00 in Rain Rain
2:31 AM 50.0 °F 48.2 °F 94% 30.05 in 2.0 mi Calm Calm - 0.02 in Rain Rain
2:38 AM 50.0 °F 48.2 °F 94% 30.05 in 1.5 mi Calm Calm - 0.03 in Rain Rain
2:51 AM 48.9 °F 48.0 °F 97% 30.06 in 1.8 mi Calm Calm - 0.06 in Rain Rain
3:06 AM 50.0 °F 48.2 °F 94% 30.05 in 2.5 mi Calm Calm - 0.02 in Rain Rain
3:42 AM 50.0 °F 48.2 °F 94% 30.06 in 3.0 mi Calm Calm - 0.11 in Rain Rain
3:51 AM 50.0 °F 48.0 °F 93% 30.07 in 4.0 mi South 4.6 mph - 0.14 in Rain Rain
4:51 AM 50.0 °F 48.0 °F 93% 30.07 in 6.0 mi SSW 3.5 mph - 0.13 in Rain Light Rain
5:51 AM 51.8 °F 48.2 °F 88% 30.05 in 10.0 mi Calm Calm - N/A Rain Light Rain
6:32 AM 48.2 °F 46.4 °F 93% 30.06 in 2.0 mi Calm Calm - 0.01 in Rain Light Rain
6:46 AM 48.2 °F 48.2 °F 100% 30.07 in 5.0 mi Calm Calm - 0.01 in Rain Light Rain
6:51 AM 48.9 °F 48.0 °F 97% 30.09 in 4.0 mi Calm Calm - 0.01 in Rain Light Rain
7:24 AM 48.2 °F 46.4 °F 93% 30.07 in 2.0 mi Calm Calm - 0.00 in Rain Light Rain
7:39 AM 48.2 °F 48.2 °F 100% 30.08 in 1.5 mi Calm Calm - 0.01 in Rain Light Rain
7:51 AM 48.9 °F 46.9 °F 93% 30.10 in 1.0 mi Calm Calm - 0.01 in   Overcast
8:05 AM 48.2 °F 48.2 °F 100% 30.08 in 3.0 mi Calm Calm - 0.00 in Rain Light Rain
8:17 AM 48.2 °F 48.2 °F 100% 30.08 in 2.0 mi Calm Calm - 0.00 in   Overcast
8:51 AM 51.1 °F 48.9 °F 92% 30.10 in 6.0 mi Calm Calm - 0.00 in   Mostly Cloudy
9:51 AM 54.0 °F 50.0 °F 86% 30.10 in 10.0 mi Calm Calm - N/A   Scattered Clouds
10:51 AM 57.0 °F 50.0 °F 77% 30.09 in 10.0 mi SSW 3.5 mph - N/A   Clear
11:51 AM 59.0 °F 50.0 °F 72% 30.05 in 10.0 mi Calm Calm - N/A   Partly Cloudy
12:51 PM 59.0 °F 48.9 °F 69% 30.03 in 10.0 mi SSE 4.6 mph - N/A   Scattered Clouds
1:51 PM 57.9 °F 50.0 °F 75% 30.01 in 10.0 mi SE 5.8 mph - 0.00 in Rain Light Rain
2:51 PM 55.4 °F 53.6 °F 94% 29.99 in 2.5 mi Calm Calm - N/A Rain Heavy Rain
3:06 PM 55.4 °F 53.6 °F 94% 29.98 in 4.0 mi Calm Calm - 0.05 in Rain Light Rain
3:37 PM 55.4 °F 53.6 °F 94% 29.98 in 1.8 mi Calm Calm - 0.08 in Rain Heavy Rain
3:44 PM 55.4 °F 53.6 °F 94% 29.98 in 3.0 mi Calm Calm - 0.09 in Rain Light Rain
3:51 PM 55.0 °F 53.1 °F 93% 30.00 in 4.0 mi Calm Calm - 0.09 in Rain Light Rain
4:23 PM 53.6 °F 53.6 °F 100% 29.98 in 2.5 mi NNW 3.5 mph - 0.02 in Rain Rain
4:28 PM 53.6 °F 53.6 °F 100% 29.98 in 3.0 mi WNW 5.8 mph - 0.02 in Rain Light Rain
4:51 PM 54.0 °F 53.1 °F 97% 29.99 in 6.0 mi Calm Calm - 0.05 in Rain Light Rain
5:43 PM 53.6 °F 53.6 °F 100% 29.99 in 2.0 mi Calm Calm - 0.12 in Rain Heavy Rain
5:51 PM 54.0 °F 52.0 °F 93% 30.01 in 3.0 mi SE 4.6 mph - 0.15 in Rain Rain
6:51 PM 54.0 °F 52.0 °F 93% 29.99 in 4.0 mi Calm Calm - 0.08 in Rain Rain
7:27 PM 53.6 °F 51.8 °F 94% 29.98 in 2.5 mi SSE 4.6 mph - 0.08 in Rain Heavy Rain
7:43 PM 53.6 °F 53.6 °F 100% 29.97 in 6.0 mi SE 4.6 mph - 0.13 in Rain Light Rain
7:51 PM 54.0 °F 52.0 °F 93% 29.99 in 9.0 mi SE 5.8 mph - 0.13 in Rain Light Rain
8:51 PM 55.0 °F 51.1 °F 86% 29.95 in 10.0 mi SSE 4.6 mph - 0.00 in   Overcast
9:51 PM 54.0 °F 51.1 °F 90% 29.92 in 10.0 mi SSE 5.8 mph - N/A   Overcast
10:51 PM 55.9 °F 50.0 °F 80% 29.89 in 10.0 mi SSE 8.1 mph - N/A   Mostly Cloudy
11:51 PM 55.0 °F 50.0 °F 83% 29.87 in 10.0 mi SSE 6.9 mph - 0.00 in   Mostly Cloudy